When you browse on this site, cookies collect data to enhance your experience and personalize the content and advertising you see.
Visit our Privacy Policy to learn more. By continuing to use the site, you agree to this use of cookies and data.
  • In Österreich
  • Länderverzeichnis
  • Für 7 Tage
  • Wassertemperatur
  • Wetterkarte
  • News
  • Widgets
  • user-avatar
    Anmelden

    Stündliche Wetter San Juan

    Heute, 19 Januar, Sonntag

    Zeit Temperatur Niederschläge Wind Luftdruck Luftfeuchtigkeit
    00:00 +31°C° 0 mm 1 m/S 705 mmHg 41%
    01:00 +31°C° 0 mm 1 m/S 705 mmHg 43%
    02:00 +30°C° 0 mm 1 m/S 704 mmHg 45%
    03:00 +30°C° 0 mm 1 m/S 704 mmHg 46%
    04:00 +29°C° 0 mm 1 m/S 704 mmHg 47%
    05:00 +30°C° 0 mm 1 m/S 704 mmHg 45%
    06:00 +31°C° 0 mm 2 m/S 704 mmHg 42%
    07:00 +32°C° 0 mm 2 m/S 704 mmHg 40%
    08:00 +34°C° 0 mm 2 m/S 704 mmHg 36%
    09:00 +36°C° 0 mm 2 m/S 704 mmHg 33%
    10:00 +37°C° 0 mm 2 m/S 704 mmHg 29%
    11:00 +38°C° 0 mm 2 m/S 703 mmHg 27%
    12:00 +39°C° 0 mm 2 m/S 703 mmHg 25%
    13:00 +40°C° 0 mm 3 m/S 702 mmHg 23%
    14:00 +41°C° 0 mm 4 m/S 702 mmHg 23%
    15:00 +42°C° 0 mm 5 m/S 702 mmHg 22%
    16:00 +42°C° 0 mm 6 m/S 702 mmHg 22%
    17:00 +40°C° 0.3 mm 6 m/S 702 mmHg 29%
    18:00 +36°C° 0.3 mm 7 m/S 702 mmHg 35%
    19:00 +34°C° 0.3 mm 8 m/S 703 mmHg 41%
    20:00 +35°C° 0 mm 6 m/S 703 mmHg 38%
    21:00 +35°C° 0 mm 4 m/S 704 mmHg 35%
    22:00 +36°C° 0 mm 3 m/S 705 mmHg 32%
    23:00 +36°C° 0 mm 2 m/S 704 mmHg 33%

    Morgen, 20 Januar, Montag

    Zeit Temperatur Niederschläge Wind Luftdruck Luftfeuchtigkeit
    00:00 +35°C° 0 mm 2 m/S 704 mmHg 35%
    01:00 +34°C° 0 mm 1 m/S 704 mmHg 36%
    02:00 +34°C° 0 mm 2 m/S 704 mmHg 37%
    03:00 +34°C° 0 mm 2 m/S 703 mmHg 38%
    04:00 +32°C° 0 mm 2 m/S 703 mmHg 40%
    05:00 +34°C° 0 mm 2 m/S 703 mmHg 38%
    06:00 +35°C° 0 mm 2 m/S 704 mmHg 36%
    07:00 +36°C° 0 mm 2 m/S 704 mmHg 34%
    08:00 +37°C° 0 mm 2 m/S 704 mmHg 30%
    09:00 +39°C° 0 mm 2 m/S 704 mmHg 27%
    10:00 +40°C° 0 mm 2 m/S 704 mmHg 24%
    11:00 +42°C° 0 mm 3 m/S 704 mmHg 22%
    12:00 +43°C° 0 mm 4 m/S 703 mmHg 20%
    13:00 +45°C° 0 mm 5 m/S 703 mmHg 19%
    14:00 +45°C° 0 mm 5 m/S 702 mmHg 20%
    15:00 +43°C° 0 mm 5 m/S 702 mmHg 22%
    16:00 +43°C° 0 mm 5 m/S 701 mmHg 23%
    17:00 +41°C° 0 mm 6 m/S 702 mmHg 28%
    18:00 +39°C° 0 mm 7 m/S 702 mmHg 33%
    19:00 +36°C° 0 mm 7 m/S 703 mmHg 38%
    20:00 +34°C° 0.5 mm 7 m/S 703 mmHg 42%
    21:00 +33°C° 0.5 mm 8 m/S 704 mmHg 46%
    22:00 +32°C° 0.5 mm 8 m/S 705 mmHg 50%
    23:00 +30°C° 0.7 mm 7 m/S 704 mmHg 51%

    übermorgen, 21 Januar, Dienstag

    Zeit Temperatur Niederschläge Wind Luftdruck Luftfeuchtigkeit
    00:00 +30°C° 0.7 mm 5 m/S 704 mmHg 52%
    01:00 +29°C° 0.7 mm 4 m/S 704 mmHg 54%
    02:00 +29°C° 0.1 mm 4 m/S 704 mmHg 55%
    03:00 +29°C° 0.1 mm 3 m/S 704 mmHg 55%
    04:00 +29°C° 0.1 mm 2 m/S 705 mmHg 56%
    05:00 +30°C° 0.1 mm 3 m/S 705 mmHg 52%
    06:00 +31°C° 0.1 mm 3 m/S 706 mmHg 47%
    07:00 +33°C° 0.1 mm 3 m/S 706 mmHg 42%
    08:00 +34°C° 0 mm 4 m/S 706 mmHg 36%
    09:00 +36°C° 0 mm 4 m/S 706 mmHg 30%
    10:00 +37°C° 0 mm 5 m/S 706 mmHg 23%
    11:00 +39°C° 0 mm 5 m/S 705 mmHg 22%
    12:00 +40°C° 0 mm 6 m/S 705 mmHg 21%
    13:00 +41°C° 0 mm 6 m/S 704 mmHg 20%
    14:00 +41°C° 0 mm 6 m/S 704 mmHg 21%
    15:00 +41°C° 0 mm 6 m/S 703 mmHg 22%
    16:00 +41°C° 0 mm 6 m/S 703 mmHg 23%
    17:00 +40°C° 0 mm 6 m/S 703 mmHg 24%
    18:00 +39°C° 0 mm 6 m/S 704 mmHg 25%
    19:00 +38°C° 0 mm 6 m/S 704 mmHg 27%
    20:00 +36°C° 0 mm 6 m/S 705 mmHg 30%
    21:00 +35°C° 0 mm 6 m/S 705 mmHg 33%
    22:00 +35°C° 0 mm 6 m/S 706 mmHg 37%
    23:00 +34°C° 0 mm 6 m/S 706 mmHg 39%

    22 Januar, Mittwoch

    Zeit Temperatur Niederschläge Wind Luftdruck Luftfeuchtigkeit
    00:00 +34°C° 0 mm 6 m/S 706 mmHg 40%
    01:00 +33°C° 0 mm 6 m/S 705 mmHg 42%
    02:00 +33°C° 0 mm 5 m/S 706 mmHg 44%
    03:00 +32°C° 0 mm 4 m/S 706 mmHg 45%
    04:00 +31°C° 0 mm 3 m/S 706 mmHg 46%
    05:00 +32°C° 0 mm 4 m/S 706 mmHg 44%
    06:00 +33°C° 0 mm 4 m/S 706 mmHg 42%
    07:00 +33°C° 0 mm 4 m/S 706 mmHg 40%
    08:00 +34°C° 0 mm 4 m/S 706 mmHg 37%
    09:00 +35°C° 0 mm 5 m/S 706 mmHg 34%
    10:00 +36°C° 0 mm 5 m/S 706 mmHg 31%
    11:00 +37°C° 0 mm 5 m/S 706 mmHg 29%
    12:00 +39°C° 0 mm 5 m/S 705 mmHg 27%
    13:00 +40°C° 0 mm 5 m/S 705 mmHg 25%
    14:00 +41°C° 0 mm 4 m/S 704 mmHg 24%
    15:00 +41°C° 0 mm 4 m/S 704 mmHg 23%
    16:00 +41°C° 0 mm 4 m/S 703 mmHg 22%
    17:00 +39°C° 0 mm 3 m/S 703 mmHg 24%
    18:00 +39°C° 0 mm 3 m/S 703 mmHg 25%
    19:00 +38°C° 0 mm 3 m/S 704 mmHg 27%
    20:00 +37°C° 0 mm 4 m/S 704 mmHg 32%
    21:00 +36°C° 0 mm 5 m/S 704 mmHg 37%
    22:00 +35°C° 0 mm 6 m/S 704 mmHg 42%
    23:00 +34°C° 0 mm 6 m/S 704 mmHg 43%

    23 Januar, Donnerstag

    Zeit Temperatur Niederschläge Wind Luftdruck Luftfeuchtigkeit
    00:00 +34°C° 0 mm 6 m/S 703 mmHg 45%
    01:00 +33°C° 0 mm 6 m/S 703 mmHg 47%
    02:00 +33°C° 0 mm 6 m/S 703 mmHg 48%
    03:00 +32°C° 0 mm 5 m/S 703 mmHg 49%
    04:00 +32°C° 0 mm 5 m/S 703 mmHg 50%
    05:00 +33°C° 0 mm 5 m/S 703 mmHg 48%
    06:00 +33°C° 0 mm 6 m/S 703 mmHg 46%
    07:00 +34°C° 0 mm 6 m/S 703 mmHg 44%
    08:00 +36°C° 0 mm 7 m/S 703 mmHg 40%
    09:00 +38°C° 0 mm 7 m/S 703 mmHg 36%
    10:00 +40°C° 0 mm 7 m/S 703 mmHg 32%
    11:00 +41°C° 0 mm 7 m/S 702 mmHg 29%
    12:00 +41°C° 0 mm 7 m/S 702 mmHg 27%
    13:00 +43°C° 0 mm 7 m/S 701 mmHg 24%
    14:00 +43°C° 0 mm 7 m/S 701 mmHg 23%
    15:00 +44°C° 0 mm 7 m/S 700 mmHg 22%
    16:00 +44°C° 0 mm 7 m/S 700 mmHg 22%
    17:00 +41°C° 0.1 mm 7 m/S 700 mmHg 24%
    18:00 +40°C° 0.1 mm 6 m/S 700 mmHg 27%
    19:00 +39°C° 0.1 mm 6 m/S 701 mmHg 30%
    20:00 +37°C° 0.2 mm 5 m/S 701 mmHg 32%
    21:00 +36°C° 0.2 mm 4 m/S 702 mmHg 33%
    22:00 +35°C° 0.2 mm 4 m/S 703 mmHg 35%
    23:00 +34°C° 0.5 mm 3 m/S 703 mmHg 38%

    24 Januar, Freitag

    Zeit Temperatur Niederschläge Wind Luftdruck Luftfeuchtigkeit
    00:00 +33°C° 0.5 mm 3 m/S 703 mmHg 42%
    01:00 +33°C° 0.5 mm 3 m/S 703 mmHg 45%
    02:00 +30°C° 0.1 mm 5 m/S 703 mmHg 48%
    03:00 +29°C° 0.1 mm 8 m/S 703 mmHg 51%
    04:00 +28°C° 0.1 mm 10 m/S 703 mmHg 55%
    05:00 +29°C° 0 mm 10 m/S 704 mmHg 51%
    06:00 +29°C° 0 mm 10 m/S 704 mmHg 47%
    07:00 +31°C° 0 mm 10 m/S 705 mmHg 42%
    08:00 +32°C° 0 mm 9 m/S 705 mmHg 38%
    09:00 +33°C° 0 mm 9 m/S 705 mmHg 34%
    10:00 +34°C° 0 mm 8 m/S 705 mmHg 30%
    11:00 +34°C° 0 mm 7 m/S 704 mmHg 28%
    12:00 +35°C° 0 mm 7 m/S 704 mmHg 26%
    13:00 +36°C° 0 mm 6 m/S 703 mmHg 24%
    14:00 +36°C° 0 mm 5 m/S 703 mmHg 25%
    15:00 +37°C° 0 mm 4 m/S 702 mmHg 25%
    16:00 +37°C° 0 mm 4 m/S 702 mmHg 25%
    17:00 +36°C° 0 mm 4 m/S 702 mmHg 26%
    18:00 +36°C° 0 mm 4 m/S 703 mmHg 27%
    19:00 +35°C° 0 mm 4 m/S 703 mmHg 28%
    20:00 +35°C° 0 mm 3 m/S 703 mmHg 28%
    21:00 +34°C° 0 mm 3 m/S 704 mmHg 29%
    22:00 +34°C° 0 mm 3 m/S 704 mmHg 29%
    23:00 +33°C° 0 mm 3 m/S 704 mmHg 30%
    Mehr zeigen